Time,TemperatureF,DewpointF,PressureIn,WindDirection,WindDirectionDegrees,WindSpeedMPH,WindSpeedGustMPH,Humidity,HourlyPrecipIn,Conditions,Clouds,dailyrainin,SoftwareType,DateUTC
2013-02-14 00:00:00,65.8,56.5,29.99,NNW,335,1.0,0.0,72,0.00,,,0.00,WeatherTracker,2013-02-14 05:00:00,
2013-02-14 00:05:00,65.9,56.6,29.99,NNW,329,0.0,0.0,72,0.00,,,0.00,WeatherTracker,2013-02-14 05:05:00,
2013-02-14 00:10:00,65.9,57.0,29.99,NNW,340,4.0,0.0,73,0.00,,,0.00,WeatherTracker,2013-02-14 05:10:00,
2013-02-14 00:15:00,65.9,57.4,29.98,NNW,347,0.0,0.0,74,0.00,,,0.00,WeatherTracker,2013-02-14 05:15:00,
2013-02-14 00:20:00,65.8,57.6,29.98,NNW,347,2.0,0.0,75,0.00,,,0.00,WeatherTracker,2013-02-14 05:20:00,
2013-02-14 00:26:00,65.6,57.5,29.98,North,355,4.0,0.0,75,0.01,,,0.01,WeatherTracker,2013-02-14 05:26:00,
2013-02-14 00:30:00,65.4,57.3,29.98,NW,323,5.0,0.0,75,0.01,,,0.01,WeatherTracker,2013-02-14 05:30:00,
2013-02-14 00:35:00,65.2,57.4,29.98,North,355,1.0,0.0,76,0.01,,,0.01,WeatherTracker,2013-02-14 05:35:00,
2013-02-14 00:41:00,65.2,57.4,29.98,NW,314,5.0,0.0,76,0.01,,,0.01,WeatherTracker,2013-02-14 05:41:00,
2013-02-14 00:46:00,65.1,57.3,29.98,NW,321,9.0,0.0,76,0.01,,,0.01,WeatherTracker,2013-02-14 05:46:00,
2013-02-14 00:51:00,65.0,57.2,29.97,NNW,341,2.0,0.0,76,0.01,,,0.01,WeatherTracker,2013-02-14 05:51:00,
2013-02-14 00:56:00,64.9,56.8,29.97,NNE,19,2.0,0.0,75,0.01,,,0.01,WeatherTracker,2013-02-14 05:56:00,
2013-02-14 01:01:00,64.8,56.7,29.96,NNE,15,5.0,0.0,75,0.01,,,0.01,WeatherTracker,2013-02-14 06:01:00,
2013-02-14 01:06:00,64.7,56.2,29.96,North,355,2.0,0.0,74,0.01,,,0.01,WeatherTracker,2013-02-14 06:06:00,
2013-02-14 01:11:00,64.5,56.0,29.96,North,5,0.0,0.0,74,0.01,,,0.01,WeatherTracker,2013-02-14 06:11:00,
2013-02-14 01:16:00,64.3,55.8,29.97,NNW,330,2.0,0.0,74,0.01,,,0.01,WeatherTracker,2013-02-14 06:16:00,
2013-02-14 01:21:00,64.1,55.6,29.97,NNE,33,1.0,0.0,74,0.01,,,0.01,WeatherTracker,2013-02-14 06:21:00,
2013-02-14 01:26:00,64.0,55.5,29.96,NNE,27,0.0,0.0,74,0.00,,,0.01,WeatherTracker,2013-02-14 06:26:00,
2013-02-14 01:31:00,63.8,55.7,29.97,NW,321,1.0,0.0,75,0.00,,,0.01,WeatherTracker,2013-02-14 06:31:00,
2013-02-14 01:36:00,63.8,55.3,29.96,North,5,0.0,0.0,74,0.00,,,0.01,WeatherTracker,2013-02-14 06:36:00,
2013-02-14 01:41:00,63.7,55.6,29.96,NNE,17,0.0,0.0,75,0.00,,,0.01,WeatherTracker,2013-02-14 06:41:00,
2013-02-14 01:46:00,63.5,55.4,29.96,North,360,1.0,0.0,75,0.00,,,0.01,WeatherTracker,2013-02-14 06:46:00,
2013-02-14 01:51:00,63.4,55.7,29.96,North,360,0.0,0.0,76,0.00,,,0.01,WeatherTracker,2013-02-14 06:51:00,
2013-02-14 01:56:00,63.3,55.2,29.96,NNE,21,0.0,0.0,75,0.00,,,0.01,WeatherTracker,2013-02-14 06:56:00,
2013-02-14 02:01:00,63.3,55.6,29.96,NNE,21,0.0,0.0,76,0.00,,,0.01,WeatherTracker,2013-02-14 07:01:00,
2013-02-14 02:06:00,63.2,55.9,29.96,NNE,21,0.0,0.0,77,0.00,,,0.01,WeatherTracker,2013-02-14 07:06:00,
2013-02-14 02:11:00,63.2,55.9,29.95,NNE,17,0.0,0.0,77,0.00,,,0.01,WeatherTracker,2013-02-14 07:11:00,
2013-02-14 02:16:00,63.2,55.9,29.96,NNE,24,0.0,0.0,77,0.00,,,0.01,WeatherTracker,2013-02-14 07:16:00,
2013-02-14 02:21:00,63.2,55.9,29.95,NNE,24,0.0,0.0,77,0.00,,,0.01,WeatherTracker,2013-02-14 07:21:00,
2013-02-14 02:27:00,63.2,56.2,29.95,NNE,24,0.0,0.0,78,0.00,,,0.01,WeatherTracker,2013-02-14 07:27:00,
2013-02-14 02:32:00,63.1,55.8,29.95,NNW,341,2.0,0.0,77,0.00,,,0.01,WeatherTracker,2013-02-14 07:32:00,
2013-02-14 02:37:00,63.0,56.0,29.95,NNW,329,0.0,0.0,78,0.00,,,0.01,WeatherTracker,2013-02-14 07:37:00,
2013-02-14 02:42:00,62.8,55.8,29.95,NNW,329,0.0,0.0,78,0.00,,,0.01,WeatherTracker,2013-02-14 07:42:00,
2013-02-14 02:47:00,62.7,56.1,29.95,NNW,329,0.0,0.0,79,0.00,,,0.01,WeatherTracker,2013-02-14 07:47:00,
2013-02-14 02:52:00,62.5,55.9,29.95,NNW,329,0.0,0.0,79,0.00,,,0.01,WeatherTracker,2013-02-14 07:52:00,
2013-02-14 02:57:00,62.2,55.6,29.95,NNW,329,0.0,0.0,79,0.00,,,0.01,WeatherTracker,2013-02-14 07:57:00,
2013-02-14 03:02:00,62.0,55.4,29.94,NNW,329,0.0,0.0,79,0.00,,,0.01,WeatherTracker,2013-02-14 08:02:00,
2013-02-14 03:07:00,61.9,55.7,29.95,NNW,329,0.0,0.0,80,0.00,,,0.01,WeatherTracker,2013-02-14 08:07:00,
2013-02-14 03:12:00,61.8,55.6,29.94,NNW,329,0.0,0.0,80,0.00,,,0.01,WeatherTracker,2013-02-14 08:12:00,
2013-02-14 03:17:00,61.8,55.9,29.94,NNW,329,0.0,0.0,81,0.00,,,0.01,WeatherTracker,2013-02-14 08:17:00,
2013-02-14 03:22:00,61.8,55.9,29.95,NNW,329,0.0,0.0,81,0.00,,,0.01,WeatherTracker,2013-02-14 08:22:00,
2013-02-14 03:27:00,61.7,55.8,29.94,NNW,329,0.0,0.0,81,0.00,,,0.01,WeatherTracker,2013-02-14 08:27:00,
2013-02-14 03:32:00,61.7,56.1,29.94,NNW,329,0.0,0.0,82,0.00,,,0.01,WeatherTracker,2013-02-14 08:32:00,
2013-02-14 03:37:00,61.7,56.1,29.94,NNW,329,0.0,0.0,82,0.00,,,0.01,WeatherTracker,2013-02-14 08:37:00,
2013-02-14 03:42:00,61.8,55.6,29.94,NNW,329,0.0,0.0,80,0.00,,,0.01,WeatherTracker,2013-02-14 08:42:00,
2013-02-14 03:47:00,61.8,55.9,29.94,NNW,329,0.0,0.0,81,0.00,,,0.01,WeatherTracker,2013-02-14 08:47:00,
2013-02-14 03:52:00,61.9,56.0,29.94,NE,38,0.0,0.0,81,0.00,,,0.01,WeatherTracker,2013-02-14 08:52:00,
2013-02-14 03:57:00,62.0,56.1,29.94,NE,38,0.0,0.0,81,0.00,,,0.01,WeatherTracker,2013-02-14 08:57:00,
2013-02-14 04:02:00,62.1,56.2,29.93,NE,41,1.0,0.0,81,0.00,,,0.01,WeatherTracker,2013-02-14 09:02:00,
2013-02-14 04:07:00,62.2,56.3,29.93,North,349,0.0,0.0,81,0.00,,,0.01,WeatherTracker,2013-02-14 09:07:00,
2013-02-14 04:12:00,62.4,56.5,29.93,North,349,1.0,0.0,81,0.00,,,0.01,WeatherTracker,2013-02-14 09:12:00,
2013-02-14 04:17:00,62.5,56.6,29.93,North,349,0.0,0.0,81,0.00,,,0.01,WeatherTracker,2013-02-14 09:17:00,
2013-02-14 04:22:00,62.6,56.3,29.93,North,349,1.0,0.0,80,0.00,,,0.01,WeatherTracker,2013-02-14 09:22:00,
2013-02-14 04:27:00,62.7,56.4,29.93,NNW,342,0.0,0.0,80,0.00,,,0.01,WeatherTracker,2013-02-14 09:27:00,
2013-02-14 04:32:00,62.8,56.5,29.93,NNW,342,0.0,0.0,80,0.00,,,0.01,WeatherTracker,2013-02-14 09:32:00,
2013-02-14 04:37:00,62.8,56.5,29.93,North,9,0.0,0.0,80,0.00,,,0.01,WeatherTracker,2013-02-14 09:37:00,
2013-02-14 04:43:00,62.8,56.5,29.93,North,9,0.0,0.0,80,0.00,,,0.01,WeatherTracker,2013-02-14 09:43:00,
2013-02-14 04:48:00,62.8,56.9,29.93,North,9,0.0,0.0,81,0.00,,,0.01,WeatherTracker,2013-02-14 09:48:00,
2013-02-14 04:53:00,62.8,56.9,29.93,North,9,1.0,0.0,81,0.00,,,0.01,WeatherTracker,2013-02-14 09:53:00,
2013-02-14 04:58:00,62.9,57.0,29.93,East,83,0.0,0.0,81,0.00,,,0.01,WeatherTracker,2013-02-14 09:58:00,
2013-02-14 05:03:00,62.9,57.0,29.93,East,83,0.0,0.0,81,0.00,,,0.01,WeatherTracker,2013-02-14 10:03:00,
2013-02-14 05:08:00,62.9,57.0,29.93,East,83,0.0,0.0,81,0.00,,,0.01,WeatherTracker,2013-02-14 10:08:00,
2013-02-14 05:13:00,62.9,57.0,29.93,North,9,0.0,0.0,81,0.00,,,0.01,WeatherTracker,2013-02-14 10:13:00,
2013-02-14 05:18:00,62.9,57.0,29.93,North,9,0.0,0.0,81,0.00,,,0.01,WeatherTracker,2013-02-14 10:18:00,
2013-02-14 05:23:00,62.9,57.0,29.93,NNE,13,0.0,0.0,81,0.00,,,0.01,WeatherTracker,2013-02-14 10:23:00,
2013-02-14 05:28:00,62.8,57.2,29.93,NNE,29,0.0,0.0,82,0.00,,,0.01,WeatherTracker,2013-02-14 10:28:00,
2013-02-14 05:33:00,62.7,57.1,29.94,NNE,29,0.0,0.0,82,0.00,,,0.01,WeatherTracker,2013-02-14 10:33:00,
2013-02-14 05:38:00,62.7,57.5,29.94,NNE,29,0.0,0.0,83,0.00,,,0.01,WeatherTracker,2013-02-14 10:38:00,
2013-02-14 05:43:00,62.7,57.5,29.94,NNE,29,0.0,0.0,83,0.00,,,0.01,WeatherTracker,2013-02-14 10:43:00,
2013-02-14 05:48:00,62.6,57.4,29.94,NNE,32,0.0,0.0,83,0.00,,,0.01,WeatherTracker,2013-02-14 10:48:00,
2013-02-14 05:53:00,62.5,57.3,29.94,East,99,0.0,0.0,83,0.00,,,0.01,WeatherTracker,2013-02-14 10:53:00,
2013-02-14 05:58:00,62.3,57.4,29.94,East,93,0.0,0.0,84,0.00,,,0.01,WeatherTracker,2013-02-14 10:58:00,
2013-02-14 06:03:00,62.2,57.3,29.94,East,93,0.0,0.0,84,0.00,,,0.01,WeatherTracker,2013-02-14 11:03:00,
2013-02-14 06:08:00,62.2,57.6,29.95,East,93,0.0,0.0,85,0.00,,,0.01,WeatherTracker,2013-02-14 11:08:00,
2013-02-14 06:13:00,62.3,57.7,29.95,East,93,0.0,0.0,85,0.00,,,0.01,WeatherTracker,2013-02-14 11:13:00,
2013-02-14 06:18:00,62.3,57.7,29.95,East,93,0.0,0.0,85,0.00,,,0.01,WeatherTracker,2013-02-14 11:18:00,
2013-02-14 06:23:00,62.3,57.7,29.95,East,93,0.0,0.0,85,0.00,,,0.01,WeatherTracker,2013-02-14 11:23:00,
2013-02-14 06:28:00,62.4,58.2,29.96,East,93,0.0,0.0,86,0.00,,,0.01,WeatherTracker,2013-02-14 11:28:00,
2013-02-14 06:33:00,62.4,57.8,29.96,East,93,0.0,0.0,85,0.00,,,0.01,WeatherTracker,2013-02-14 11:33:00,
2013-02-14 06:38:00,62.5,57.9,29.96,East,93,0.0,0.0,85,0.00,,,0.01,WeatherTracker,2013-02-14 11:38:00,
2013-02-14 06:43:00,62.5,57.9,29.97,East,93,0.0,0.0,85,0.00,,,0.01,WeatherTracker,2013-02-14 11:43:00,
2013-02-14 06:48:00,62.5,57.6,29.96,East,93,0.0,0.0,84,0.00,,,0.01,WeatherTracker,2013-02-14 11:48:00,
2013-02-14 06:53:00,62.6,57.7,29.96,East,93,0.0,0.0,84,0.00,,,0.01,WeatherTracker,2013-02-14 11:53:00,
2013-02-14 06:58:00,62.6,57.7,29.96,East,93,1.0,0.0,84,0.00,,,0.01,WeatherTracker,2013-02-14 11:58:00,
2013-02-14 07:03:00,62.6,57.7,29.96,East,93,0.0,0.0,84,0.00,,,0.01,WeatherTracker,2013-02-14 12:03:00,
2013-02-14 07:08:00,62.7,57.5,29.96,East,93,0.0,0.0,83,0.00,,,0.01,WeatherTracker,2013-02-14 12:08:00,
2013-02-14 07:14:00,62.7,57.5,29.96,East,93,0.0,0.0,83,0.00,,,0.01,WeatherTracker,2013-02-14 12:14:00,
2013-02-14 07:19:00,62.8,57.6,29.96,East,93,0.0,0.0,83,0.00,,,0.01,WeatherTracker,2013-02-14 12:19:00,
2013-02-14 07:24:00,62.9,57.7,29.95,East,93,0.0,0.0,83,0.00,,,0.01,WeatherTracker,2013-02-14 12:24:00,
2013-02-14 07:29:00,63.0,57.4,29.95,East,90,1.0,0.0,82,0.00,,,0.01,WeatherTracker,2013-02-14 12:29:00,
2013-02-14 07:34:00,63.1,57.5,29.96,NE,50,0.0,0.0,82,0.00,,,0.01,WeatherTracker,2013-02-14 12:34:00,
2013-02-14 07:39:00,63.3,57.7,29.97,ENE,78,0.0,0.0,82,0.00,,,0.01,WeatherTracker,2013-02-14 12:39:00,
2013-02-14 07:44:00,63.5,57.6,29.97,East,90,0.0,0.0,81,0.00,,,0.01,WeatherTracker,2013-02-14 12:44:00,
2013-02-14 07:49:00,63.6,57.3,29.97,ESE,121,0.0,0.0,80,0.00,,,0.01,WeatherTracker,2013-02-14 12:49:00,
2013-02-14 07:54:00,63.8,57.5,29.97,ESE,121,0.0,0.0,80,0.00,,,0.01,WeatherTracker,2013-02-14 12:54:00,
2013-02-14 07:59:00,63.9,57.6,29.98,ESE,119,0.0,0.0,80,0.00,,,0.01,WeatherTracker,2013-02-14 12:59:00,
2013-02-14 08:04:00,64.1,57.8,29.97,NNE,13,0.0,0.0,80,0.00,,,0.01,WeatherTracker,2013-02-14 13:04:00,
2013-02-14 08:09:00,64.4,58.1,29.97,NW,323,1.0,0.0,80,0.00,,,0.01,WeatherTracker,2013-02-14 13:09:00,
2013-02-14 08:14:00,64.7,58.4,29.98,NNW,343,1.0,0.0,80,0.00,,,0.01,WeatherTracker,2013-02-14 13:14:00,
2013-02-14 08:19:00,64.8,58.5,29.99,NNW,333,4.0,0.0,80,0.00,,,0.01,WeatherTracker,2013-02-14 13:19:00,
2013-02-14 08:24:00,65.0,58.3,29.99,NNW,334,0.0,0.0,79,0.00,,,0.01,WeatherTracker,2013-02-14 13:24:00,
2013-02-14 08:29:00,65.1,58.4,29.98,NNW,335,0.0,0.0,79,0.00,,,0.01,WeatherTracker,2013-02-14 13:29:00,
2013-02-14 08:34:00,65.3,58.6,29.98,NNE,29,0.0,0.0,79,0.00,,,0.01,WeatherTracker,2013-02-14 13:34:00,
2013-02-14 08:39:00,65.5,58.5,29.99,NNW,341,1.0,0.0,78,0.00,,,0.01,WeatherTracker,2013-02-14 13:39:00,
2013-02-14 08:44:00,65.8,58.7,29.99,NNW,332,0.0,0.0,78,0.00,,,0.01,WeatherTracker,2013-02-14 13:44:00,
2013-02-14 08:49:00,66.1,59.0,29.99,NE,42,0.0,0.0,78,0.00,,,0.01,WeatherTracker,2013-02-14 13:49:00,
2013-02-14 08:54:00,66.4,58.6,30.00,NNE,30,0.0,0.0,76,0.00,,,0.01,WeatherTracker,2013-02-14 13:54:00,
2013-02-14 08:59:00,66.7,58.1,30.00,ENE,68,0.0,0.0,74,0.00,,,0.01,WeatherTracker,2013-02-14 13:59:00,
2013-02-14 09:04:00,66.9,59.1,30.00,NNW,340,2.0,0.0,76,0.00,,,0.01,WeatherTracker,2013-02-14 14:04:00,
2013-02-14 09:09:00,66.9,58.7,30.00,NNW,337,4.0,0.0,75,0.00,,,0.01,WeatherTracker,2013-02-14 14:09:00,
2013-02-14 09:14:00,66.9,58.7,29.99,NNW,348,0.0,0.0,75,0.00,,,0.01,WeatherTracker,2013-02-14 14:14:00,
2013-02-14 09:19:00,66.9,59.1,30.00,NNW,348,2.0,0.0,76,0.00,,,0.01,WeatherTracker,2013-02-14 14:19:00,
2013-02-14 09:24:00,66.9,59.1,30.00,NNW,343,2.0,0.0,76,0.00,,,0.01,WeatherTracker,2013-02-14 14:24:00,
2013-02-14 09:30:00,66.9,59.1,30.00,NNW,327,2.0,0.0,76,0.00,,,0.01,WeatherTracker,2013-02-14 14:30:00,
2013-02-14 09:35:00,66.8,59.0,30.00,NNW,335,2.0,0.0,76,0.00,,,0.01,WeatherTracker,2013-02-14 14:35:00,
2013-02-14 09:40:00,66.7,59.3,30.00,NNW,336,2.0,0.0,77,0.00,,,0.01,WeatherTracker,2013-02-14 14:40:00,
2013-02-14 09:45:00,66.6,59.2,30.00,NNW,338,3.0,0.0,77,0.00,,,0.01,WeatherTracker,2013-02-14 14:45:00,
2013-02-14 09:50:00,66.6,58.8,30.00,NNW,329,4.0,0.0,76,0.00,,,0.01,WeatherTracker,2013-02-14 14:50:00,
2013-02-14 09:55:00,66.5,59.1,30.00,NW,317,4.0,0.0,77,0.00,,,0.01,WeatherTracker,2013-02-14 14:55:00,
2013-02-14 10:00:00,66.4,59.3,30.01,NW,321,4.0,0.0,78,0.00,,,0.01,WeatherTracker,2013-02-14 15:00:00,
2013-02-14 10:05:00,66.4,59.3,30.01,North,9,8.0,0.0,78,0.00,,,0.01,WeatherTracker,2013-02-14 15:05:00,
2013-02-14 10:10:00,66.4,59.0,30.00,NNW,348,1.0,0.0,77,0.00,,,0.01,WeatherTracker,2013-02-14 15:10:00,
2013-02-14 10:15:00,66.5,59.4,30.00,NNW,334,3.0,0.0,78,0.00,,,0.01,WeatherTracker,2013-02-14 15:15:00,
2013-02-14 10:20:00,66.6,60.2,30.00,NNW,334,3.0,0.0,80,0.00,,,0.01,WeatherTracker,2013-02-14 15:20:00,
2013-02-14 10:25:00,66.6,60.2,30.01,NNW,331,0.0,0.0,80,0.00,,,0.01,WeatherTracker,2013-02-14 15:25:00,
2013-02-14 10:30:00,66.8,60.8,30.01,NNW,328,5.0,0.0,81,0.00,,,0.01,WeatherTracker,2013-02-14 15:30:00,
2013-02-14 10:35:00,66.9,59.8,30.01,NW,326,3.0,0.0,78,0.00,,,0.01,WeatherTracker,2013-02-14 15:35:00,
2013-02-14 10:40:00,67.2,60.1,30.01,NNW,346,7.0,0.0,78,0.00,,,0.01,WeatherTracker,2013-02-14 15:40:00,
2013-02-14 10:45:00,67.3,60.2,30.02,NNW,332,4.0,0.0,78,0.00,,,0.01,WeatherTracker,2013-02-14 15:45:00,
2013-02-14 10:50:00,67.1,59.3,30.03,NW,321,5.0,0.0,76,0.00,,,0.01,WeatherTracker,2013-02-14 15:50:00,
2013-02-14 10:55:00,67.0,59.5,30.02,North,5,9.0,0.0,77,0.00,,,0.01,WeatherTracker,2013-02-14 15:55:00,
2013-02-14 11:00:00,67.0,59.5,30.02,North,360,5.0,0.0,77,0.00,,,0.01,WeatherTracker,2013-02-14 16:00:00,
2013-02-14 11:05:00,67.2,60.1,30.02,NW,312,6.0,0.0,78,0.00,,,0.01,WeatherTracker,2013-02-14 16:05:00,
2013-02-14 11:10:00,67.2,59.4,30.02,North,360,8.0,0.0,76,0.00,,,0.01,WeatherTracker,2013-02-14 16:10:00,
2013-02-14 11:15:00,67.1,59.3,30.02,NW,311,9.0,0.0,76,0.00,,,0.01,WeatherTracker,2013-02-14 16:15:00,
2013-02-14 11:20:00,67.2,59.7,30.01,NW,320,6.0,0.0,77,0.00,,,0.01,WeatherTracker,2013-02-14 16:20:00,
2013-02-14 11:25:00,67.3,60.2,30.02,North,360,8.0,0.0,78,0.00,,,0.01,WeatherTracker,2013-02-14 16:25:00,
2013-02-14 11:30:00,67.4,60.3,30.01,NW,319,5.0,0.0,78,0.00,,,0.01,WeatherTracker,2013-02-14 16:30:00,
2013-02-14 11:35:00,67.4,60.3,30.02,North,360,4.0,0.0,78,0.00,,,0.01,WeatherTracker,2013-02-14 16:35:00,
2013-02-14 11:41:00,67.0,60.3,30.02,NW,306,8.0,0.0,79,0.00,,,0.01,WeatherTracker,2013-02-14 16:41:00,
2013-02-14 11:46:00,66.8,60.8,30.02,North,9,5.0,0.0,81,0.00,,,0.01,WeatherTracker,2013-02-14 16:46:00,
2013-02-14 11:51:00,66.9,60.9,30.01,NNW,339,6.0,0.0,81,0.00,,,0.01,WeatherTracker,2013-02-14 16:51:00,
2013-02-14 11:56:00,66.6,60.9,30.02,NW,313,10.0,0.0,82,0.00,,,0.01,WeatherTracker,2013-02-14 16:56:00,
2013-02-14 12:01:00,66.5,61.2,30.02,NNW,347,7.0,0.0,83,0.00,,,0.01,WeatherTracker,2013-02-14 17:01:00,
2013-02-14 12:06:00,66.6,60.6,30.01,NNW,336,11.0,0.0,81,0.00,,,0.01,WeatherTracker,2013-02-14 17:06:00,
2013-02-14 12:11:00,66.7,61.0,30.02,NNW,344,6.0,0.0,82,0.00,,,0.01,WeatherTracker,2013-02-14 17:11:00,
2013-02-14 12:16:00,66.9,60.9,30.02,North,9,4.0,0.0,81,0.00,,,0.01,WeatherTracker,2013-02-14 17:16:00,
2013-02-14 12:21:00,66.5,60.8,30.00,NW,315,7.0,0.0,82,0.00,,,0.01,WeatherTracker,2013-02-14 17:21:00,
2013-02-14 12:26:00,66.0,60.7,29.99,NW,321,9.0,0.0,83,0.00,,,0.01,WeatherTracker,2013-02-14 17:26:00,
2013-02-14 12:31:00,65.8,61.2,29.99,NNW,329,8.0,0.0,85,0.00,,,0.01,WeatherTracker,2013-02-14 17:31:00,
2013-02-14 12:36:00,65.8,61.5,29.99,North,349,7.0,0.0,86,0.00,,,0.01,WeatherTracker,2013-02-14 17:36:00,
2013-02-14 12:41:00,65.6,60.6,29.99,North,355,10.0,0.0,84,0.00,,,0.01,WeatherTracker,2013-02-14 17:41:00,
2013-02-14 12:46:00,64.9,60.3,30.00,NNW,347,8.0,0.0,85,0.00,,,0.01,WeatherTracker,2013-02-14 17:46:00,
2013-02-14 12:51:00,64.4,60.1,30.00,NNE,22,5.0,0.0,86,0.00,,,0.01,WeatherTracker,2013-02-14 17:51:00,
2013-02-14 12:56:00,64.1,60.1,30.00,NW,321,11.0,0.0,87,0.00,,,0.01,WeatherTracker,2013-02-14 17:56:00,
2013-02-14 13:01:00,63.8,59.9,30.01,NNW,337,5.0,0.0,87,0.00,,,0.01,WeatherTracker,2013-02-14 18:01:00,
2013-02-14 13:06:00,63.6,60.3,29.99,NNW,346,8.0,0.0,89,0.00,,,0.01,WeatherTracker,2013-02-14 18:06:00,
2013-02-14 13:11:00,63.1,60.4,29.99,NW,321,5.0,0.0,91,0.02,,,0.03,WeatherTracker,2013-02-14 18:11:00,
2013-02-14 13:16:00,62.6,59.9,30.00,NNW,348,4.0,0.0,91,0.03,,,0.04,WeatherTracker,2013-02-14 18:16:00,
2013-02-14 13:21:00,62.4,60.3,29.98,North,355,4.0,0.0,93,0.05,,,0.06,WeatherTracker,2013-02-14 18:21:00,
2013-02-14 13:26:00,62.3,60.2,29.98,North,355,12.0,0.0,93,0.06,,,0.07,WeatherTracker,2013-02-14 18:26:00,
2013-02-14 13:31:00,62.1,60.0,29.98,NNW,342,6.0,0.0,93,0.07,,,0.08,WeatherTracker,2013-02-14 18:31:00,
2013-02-14 13:36:00,62.1,60.4,29.97,NW,307,6.0,0.0,94,0.07,,,0.08,WeatherTracker,2013-02-14 18:36:00,
2013-02-14 13:42:00,62.1,60.4,29.97,NW,310,7.0,0.0,94,0.07,,,0.08,WeatherTracker,2013-02-14 18:42:00,
2013-02-14 13:47:00,62.0,60.3,29.96,NNW,341,3.0,0.0,94,0.08,,,0.09,WeatherTracker,2013-02-14 18:47:00,
2013-02-14 13:52:00,62.0,60.3,29.96,NW,323,5.0,0.0,94,0.08,,,0.09,WeatherTracker,2013-02-14 18:52:00,
2013-02-14 13:57:00,62.1,60.4,29.96,NNW,347,8.0,0.0,94,0.08,,,0.09,WeatherTracker,2013-02-14 18:57:00,
2013-02-14 14:02:00,62.2,60.7,29.96,North,351,6.0,0.0,95,0.08,,,0.09,WeatherTracker,2013-02-14 19:02:00,
2013-02-14 14:07:00,62.1,60.4,29.97,NNW,332,1.0,0.0,94,0.09,,,0.10,WeatherTracker,2013-02-14 19:07:00,
2013-02-14 14:12:00,62.0,60.3,29.96,NW,326,2.0,0.0,94,0.07,,,0.10,WeatherTracker,2013-02-14 19:12:00,
2013-02-14 14:17:00,62.0,60.5,29.95,North,355,3.0,0.0,95,0.07,,,0.11,WeatherTracker,2013-02-14 19:17:00,
2013-02-14 14:22:00,62.0,60.3,29.96,NW,312,0.0,0.0,94,0.06,,,0.12,WeatherTracker,2013-02-14 19:22:00,
2013-02-14 14:27:00,62.1,60.6,29.97,NNW,336,2.0,0.0,95,0.06,,,0.13,WeatherTracker,2013-02-14 19:27:00,
2013-02-14 14:32:00,62.1,60.6,29.97,NNW,348,1.0,0.0,95,0.06,,,0.14,WeatherTracker,2013-02-14 19:32:00,
2013-02-14 14:37:00,62.1,60.6,29.97,NNW,333,0.0,0.0,95,0.06,,,0.14,WeatherTracker,2013-02-14 19:37:00,
2013-02-14 14:42:00,62.3,60.8,29.97,NNW,333,0.0,0.0,95,0.07,,,0.15,WeatherTracker,2013-02-14 19:42:00,
2013-02-14 14:47:00,62.5,61.3,29.98,NNW,333,0.0,0.0,96,0.07,,,0.16,WeatherTracker,2013-02-14 19:47:00,
2013-02-14 14:52:00,62.5,61.0,29.97,NNW,333,0.0,0.0,95,0.07,,,0.16,WeatherTracker,2013-02-14 19:52:00,
2013-02-14 14:57:00,62.5,61.0,29.97,NNW,333,0.0,0.0,95,0.07,,,0.16,WeatherTracker,2013-02-14 19:57:00,
2013-02-14 15:02:00,62.6,61.1,29.97,NNW,333,0.0,0.0,95,0.07,,,0.16,WeatherTracker,2013-02-14 20:02:00,
2013-02-14 15:07:00,62.6,61.1,29.97,NNE,16,0.0,0.0,95,0.06,,,0.16,WeatherTracker,2013-02-14 20:07:00,
2013-02-14 15:12:00,62.6,61.1,29.96,NE,38,1.0,0.0,95,0.06,,,0.16,WeatherTracker,2013-02-14 20:12:00,
2013-02-14 15:17:00,62.5,61.0,29.97,NE,39,1.0,0.0,95,0.05,,,0.16,WeatherTracker,2013-02-14 20:17:00,
2013-02-14 15:22:00,62.6,61.1,29.97,NE,39,0.0,0.0,95,0.04,,,0.16,WeatherTracker,2013-02-14 20:22:00,
2013-02-14 15:27:00,62.8,61.3,29.97,NNW,327,4.0,0.0,95,0.03,,,0.16,WeatherTracker,2013-02-14 20:27:00,
2013-02-14 15:32:00,63.0,61.5,29.98,NNW,340,2.0,0.0,95,0.02,,,0.16,WeatherTracker,2013-02-14 20:32:00,
2013-02-14 15:37:00,62.9,61.4,29.97,NNW,343,0.0,0.0,95,0.03,,,0.17,WeatherTracker,2013-02-14 20:37:00,
2013-02-14 15:43:00,63.0,61.5,29.97,NNW,336,0.0,0.0,95,0.02,,,0.17,WeatherTracker,2013-02-14 20:43:00,
2013-02-14 15:48:00,62.9,61.4,29.97,NNE,13,1.0,0.0,95,0.02,,,0.18,WeatherTracker,2013-02-14 20:48:00,
2013-02-14 15:53:00,62.8,61.3,29.97,NNE,13,1.0,0.0,95,0.02,,,0.18,WeatherTracker,2013-02-14 20:53:00,
2013-02-14 15:58:00,62.6,60.8,29.96,North,355,1.0,0.0,94,0.02,,,0.18,WeatherTracker,2013-02-14 20:58:00,
2013-02-14 16:03:00,62.5,61.0,29.96,ENE,78,2.0,0.0,95,0.03,,,0.19,WeatherTracker,2013-02-14 21:03:00,
2013-02-14 16:08:00,62.4,60.6,29.97,East,100,1.0,0.0,94,0.03,,,0.19,WeatherTracker,2013-02-14 21:08:00,
2013-02-14 16:13:00,62.4,60.9,29.98,ESE,115,0.0,0.0,95,0.03,,,0.19,WeatherTracker,2013-02-14 21:13:00,
2013-02-14 16:18:00,62.4,60.9,29.97,SE,124,2.0,0.0,95,0.03,,,0.19,WeatherTracker,2013-02-14 21:18:00,
2013-02-14 16:23:00,62.4,60.9,29.97,ENE,69,0.0,0.0,95,0.04,,,0.20,WeatherTracker,2013-02-14 21:23:00,
2013-02-14 16:28:00,62.4,60.9,29.97,ENE,69,0.0,0.0,95,0.04,,,0.20,WeatherTracker,2013-02-14 21:28:00,
2013-02-14 16:33:00,62.5,61.0,29.98,NNE,17,0.0,0.0,95,0.04,,,0.20,WeatherTracker,2013-02-14 21:33:00,
2013-02-14 16:38:00,62.7,61.5,29.97,North,11,0.0,0.0,96,0.03,,,0.20,WeatherTracker,2013-02-14 21:38:00,
2013-02-14 16:43:00,62.7,61.2,29.97,North,11,0.0,0.0,95,0.03,,,0.20,WeatherTracker,2013-02-14 21:43:00,
2013-02-14 16:48:00,62.8,61.6,29.97,North,9,0.0,0.0,96,0.03,,,0.21,WeatherTracker,2013-02-14 21:48:00,
2013-02-14 16:53:00,62.8,61.6,29.97,NNW,342,2.0,0.0,96,0.03,,,0.21,WeatherTracker,2013-02-14 21:53:00,
2013-02-14 16:58:00,62.8,61.3,29.97,NNW,333,4.0,0.0,95,0.03,,,0.21,WeatherTracker,2013-02-14 21:58:00,
2013-02-14 17:03:00,62.8,61.3,29.97,NNW,328,1.0,0.0,95,0.02,,,0.21,WeatherTracker,2013-02-14 22:03:00,
2013-02-14 17:08:00,62.8,61.3,29.97,NNW,328,0.0,0.0,95,0.02,,,0.21,WeatherTracker,2013-02-14 22:08:00,
2013-02-14 17:13:00,62.7,61.2,29.97,NNW,346,0.0,0.0,95,0.02,,,0.21,WeatherTracker,2013-02-14 22:13:00,
2013-02-14 17:18:00,62.6,61.1,29.97,NNW,346,0.0,0.0,95,0.03,,,0.22,WeatherTracker,2013-02-14 22:18:00,
2013-02-14 17:23:00,62.5,61.3,29.98,NNW,348,1.0,0.0,96,0.02,,,0.22,WeatherTracker,2013-02-14 22:23:00,
2013-02-14 17:28:00,62.4,61.2,29.97,North,350,1.0,0.0,96,0.02,,,0.22,WeatherTracker,2013-02-14 22:28:00,
2013-02-14 17:33:00,62.4,60.9,29.98,North,350,0.0,0.0,95,0.02,,,0.22,WeatherTracker,2013-02-14 22:33:00,
2013-02-14 17:38:00,62.3,61.1,29.98,NW,322,0.0,0.0,96,0.02,,,0.22,WeatherTracker,2013-02-14 22:38:00,
2013-02-14 17:43:00,62.2,60.7,29.98,North,355,1.0,0.0,95,0.02,,,0.22,WeatherTracker,2013-02-14 22:43:00,
2013-02-14 17:48:00,62.1,60.6,29.97,East,100,1.0,0.0,95,0.01,,,0.22,WeatherTracker,2013-02-14 22:48:00,
2013-02-14 17:53:00,61.9,60.4,29.97,East,82,1.0,0.0,95,0.01,,,0.22,WeatherTracker,2013-02-14 22:53:00,
2013-02-14 17:58:00,61.8,60.4,29.98,ENE,72,0.0,0.0,95,0.01,,,0.22,WeatherTracker,2013-02-14 22:58:00,
2013-02-14 18:03:00,61.8,60.6,29.98,ENE,72,0.0,0.0,96,0.01,,,0.22,WeatherTracker,2013-02-14 23:03:00,
2013-02-14 18:09:00,61.8,60.4,30.00,East,91,0.0,0.0,95,0.01,,,0.22,WeatherTracker,2013-02-14 23:09:00,
2013-02-14 18:14:00,61.7,60.3,30.00,East,91,0.0,0.0,95,0.01,,,0.22,WeatherTracker,2013-02-14 23:14:00,
2013-02-14 18:19:00,61.7,60.5,30.00,East,91,0.0,0.0,96,0.00,,,0.22,WeatherTracker,2013-02-14 23:19:00,
2013-02-14 18:24:00,61.8,60.6,30.01,East,91,0.0,0.0,96,0.00,,,0.22,WeatherTracker,2013-02-14 23:24:00,
2013-02-14 18:29:00,61.7,60.5,30.00,East,91,0.0,0.0,96,0.00,,,0.22,WeatherTracker,2013-02-14 23:29:00,
2013-02-14 18:34:00,61.6,60.4,29.99,East,91,0.0,0.0,96,0.00,,,0.22,WeatherTracker,2013-02-14 23:34:00,
2013-02-14 18:39:00,61.7,60.5,30.00,North,10,0.0,0.0,96,0.00,,,0.22,WeatherTracker,2013-02-14 23:39:00,
2013-02-14 18:44:00,61.6,60.4,30.00,North,360,2.0,0.0,96,0.00,,,0.22,WeatherTracker,2013-02-14 23:44:00,
2013-02-14 18:49:00,61.6,60.4,30.00,NNW,343,2.0,0.0,96,0.00,,,0.22,WeatherTracker,2013-02-14 23:49:00,
2013-02-14 18:54:00,61.5,60.1,30.00,North,355,0.0,0.0,95,0.00,,,0.22,WeatherTracker,2013-02-14 23:54:00,
2013-02-14 18:59:00,61.5,60.3,30.01,North,355,0.0,0.0,96,0.00,,,0.22,WeatherTracker,2013-02-14 23:59:00,
2013-02-14 19:04:00,61.4,60.0,30.01,North,355,0.0,0.0,95,0.00,,,0.22,WeatherTracker,2013-02-15 00:04:00,
2013-02-14 19:09:00,61.4,60.2,30.02,North,355,0.0,0.0,96,0.00,,,0.22,WeatherTracker,2013-02-15 00:09:00,
2013-02-14 19:14:00,61.4,60.2,30.02,North,355,0.0,0.0,96,0.00,,,0.22,WeatherTracker,2013-02-15 00:14:00,
2013-02-14 19:19:00,61.4,60.2,30.01,North,355,2.0,0.0,96,0.00,,,0.22,WeatherTracker,2013-02-15 00:19:00,
2013-02-14 19:24:00,61.4,60.2,30.02,North,355,0.0,0.0,96,0.00,,,0.22,WeatherTracker,2013-02-15 00:24:00,
2013-02-14 19:29:00,61.5,60.3,30.03,North,355,0.0,0.0,96,0.00,,,0.22,WeatherTracker,2013-02-15 00:29:00,
2013-02-14 19:34:00,61.5,60.3,30.03,North,355,0.0,0.0,96,0.00,,,0.22,WeatherTracker,2013-02-15 00:34:00,
2013-02-14 19:39:00,61.6,60.4,30.02,North,355,0.0,0.0,96,0.00,,,0.22,WeatherTracker,2013-02-15 00:39:00,
2013-02-14 19:44:00,61.6,60.4,30.02,North,355,0.0,0.0,96,0.00,,,0.22,WeatherTracker,2013-02-15 00:44:00,
2013-02-14 19:50:00,61.6,60.4,30.01,North,355,0.0,0.0,96,0.00,,,0.22,WeatherTracker,2013-02-15 00:50:00,
2013-02-14 19:55:00,61.5,60.3,30.00,NW,319,5.0,0.0,96,0.00,,,0.22,WeatherTracker,2013-02-15 00:55:00,
2013-02-14 20:00:00,61.5,60.1,30.01,ENE,69,2.0,0.0,95,0.00,,,0.22,WeatherTracker,2013-02-15 01:00:00,
2013-02-14 20:05:00,61.2,59.8,30.01,East,98,4.0,0.0,95,0.00,,,0.22,WeatherTracker,2013-02-15 01:05:00,
2013-02-14 20:10:00,60.9,59.5,30.01,ESE,109,0.0,0.0,95,0.00,,,0.22,WeatherTracker,2013-02-15 01:10:00,
2013-02-14 20:15:00,60.8,59.4,30.02,East,88,0.0,0.0,95,0.00,,,0.22,WeatherTracker,2013-02-15 01:15:00,
2013-02-14 20:20:00,60.8,59.4,30.02,East,89,0.0,0.0,95,0.00,,,0.22,WeatherTracker,2013-02-15 01:20:00,
2013-02-14 20:25:00,60.8,59.4,30.03,East,88,0.0,0.0,95,0.00,,,0.22,WeatherTracker,2013-02-15 01:25:00,
2013-02-14 20:30:00,60.8,59.7,30.03,East,88,0.0,0.0,96,0.00,,,0.22,WeatherTracker,2013-02-15 01:30:00,
2013-02-14 20:35:00,60.9,59.8,30.03,East,88,0.0,0.0,96,0.00,,,0.22,WeatherTracker,2013-02-15 01:35:00,
2013-02-14 20:40:00,61.0,59.8,30.03,East,88,0.0,0.0,96,0.00,,,0.22,WeatherTracker,2013-02-15 01:40:00,
2013-02-14 20:45:00,61.0,59.8,30.03,East,88,0.0,0.0,96,0.00,,,0.22,WeatherTracker,2013-02-15 01:45:00,
2013-02-14 20:50:00,61.1,59.9,30.03,East,88,0.0,0.0,96,0.00,,,0.22,WeatherTracker,2013-02-15 01:50:00,
2013-02-14 20:55:00,61.0,59.6,30.02,East,88,0.0,0.0,95,0.00,,,0.22,WeatherTracker,2013-02-15 01:55:00,
2013-02-14 21:00:00,60.9,59.5,30.02,East,88,0.0,0.0,95,0.00,,,0.22,WeatherTracker,2013-02-15 02:00:00,
2013-02-14 21:05:00,60.9,59.5,30.02,East,88,0.0,0.0,95,0.00,,,0.22,WeatherTracker,2013-02-15 02:05:00,
2013-02-14 21:10:00,60.9,59.8,30.01,ENE,68,0.0,0.0,96,0.00,,,0.22,WeatherTracker,2013-02-15 02:10:00,
2013-02-14 21:15:00,60.9,59.8,30.01,SE,129,0.0,0.0,96,0.00,,,0.22,WeatherTracker,2013-02-15 02:15:00,
2013-02-14 21:20:00,60.9,59.8,30.01,East,95,5.0,0.0,96,0.00,,,0.22,WeatherTracker,2013-02-15 02:20:00,
2013-02-14 21:25:00,61.0,59.8,30.02,East,90,0.0,0.0,96,0.00,,,0.22,WeatherTracker,2013-02-15 02:25:00,
2013-02-14 21:30:00,61.0,59.8,30.02,East,90,0.0,0.0,96,0.00,,,0.22,WeatherTracker,2013-02-15 02:30:00,
2013-02-14 21:35:00,61.0,59.8,30.02,East,90,0.0,0.0,96,0.00,,,0.22,WeatherTracker,2013-02-15 02:35:00,
2013-02-14 21:40:00,61.0,59.8,30.02,ESE,111,0.0,0.0,96,0.00,,,0.22,WeatherTracker,2013-02-15 02:40:00,
2013-02-14 21:45:00,60.9,59.8,30.02,SE,132,1.0,0.0,96,0.00,,,0.22,WeatherTracker,2013-02-15 02:45:00,
2013-02-14 21:50:00,60.9,59.8,30.02,SE,130,0.0,0.0,96,0.00,,,0.22,WeatherTracker,2013-02-15 02:50:00,
2013-02-14 21:55:00,60.8,59.7,30.02,ESE,117,1.0,0.0,96,0.01,,,0.23,WeatherTracker,2013-02-15 02:55:00,
2013-02-14 22:00:00,60.8,59.7,30.01,ESE,120,0.0,0.0,96,0.01,,,0.23,WeatherTracker,2013-02-15 03:00:00,
2013-02-14 22:05:00,60.8,59.7,30.01,ESE,103,0.0,0.0,96,0.01,,,0.23,WeatherTracker,2013-02-15 03:05:00,
2013-02-14 22:10:00,60.7,59.6,30.01,ESE,110,0.0,0.0,96,0.01,,,0.23,WeatherTracker,2013-02-15 03:10:00,
2013-02-14 22:16:00,60.7,59.6,30.01,East,97,1.0,0.0,96,0.02,,,0.24,WeatherTracker,2013-02-15 03:16:00,
2013-02-14 22:21:00,60.7,59.6,30.02,SSE,150,0.0,0.0,96,0.02,,,0.24,WeatherTracker,2013-02-15 03:21:00,
2013-02-14 22:26:00,60.7,59.6,30.03,SSW,197,0.0,0.0,96,0.02,,,0.24,WeatherTracker,2013-02-15 03:26:00,
2013-02-14 22:31:00,60.7,59.6,30.03,SSW,196,0.0,0.0,96,0.02,,,0.24,WeatherTracker,2013-02-15 03:31:00,
2013-02-14 22:36:00,60.7,59.6,30.03,SSW,196,0.0,0.0,96,0.02,,,0.24,WeatherTracker,2013-02-15 03:36:00,
2013-02-14 22:41:00,60.6,59.5,30.02,SSW,196,0.0,0.0,96,0.02,,,0.24,WeatherTracker,2013-02-15 03:41:00,
2013-02-14 22:46:00,60.5,59.4,30.03,SSW,196,0.0,0.0,96,0.02,,,0.24,WeatherTracker,2013-02-15 03:46:00,
2013-02-14 22:51:00,60.5,59.4,30.03,SSW,196,0.0,0.0,96,0.02,,,0.24,WeatherTracker,2013-02-15 03:51:00,
2013-02-14 22:56:00,60.5,59.4,30.02,SSW,196,0.0,0.0,96,0.01,,,0.24,WeatherTracker,2013-02-15 03:56:00,
2013-02-14 23:01:00,60.5,59.4,30.02,SSW,196,0.0,0.0,96,0.01,,,0.24,WeatherTracker,2013-02-15 04:01:00,
2013-02-14 23:06:00,60.5,59.4,30.02,SSW,196,0.0,0.0,96,0.01,,,0.24,WeatherTracker,2013-02-15 04:06:00,
2013-02-14 23:11:00,60.5,59.4,30.01,SSW,196,0.0,0.0,96,0.01,,,0.24,WeatherTracker,2013-02-15 04:11:00,
2013-02-14 23:16:00,60.5,59.4,30.01,SSW,196,0.0,0.0,96,0.00,,,0.24,WeatherTracker,2013-02-15 04:16:00,
2013-02-14 23:21:00,60.4,59.3,29.99,ENE,65,0.0,0.0,96,0.00,,,0.24,WeatherTracker,2013-02-15 04:21:00,
2013-02-14 23:26:00,60.4,59.3,29.98,ENE,65,0.0,0.0,96,0.00,,,0.24,WeatherTracker,2013-02-15 04:26:00,
2013-02-14 23:31:00,60.4,59.3,29.99,SE,129,0.0,0.0,96,0.00,,,0.24,WeatherTracker,2013-02-15 04:31:00,
2013-02-14 23:36:00,60.4,59.3,29.98,SSE,161,0.0,0.0,96,0.00,,,0.24,WeatherTracker,2013-02-15 04:36:00,
2013-02-14 23:41:00,60.4,59.3,29.98,ESE,111,0.0,0.0,96,0.00,,,0.24,WeatherTracker,2013-02-15 04:41:00,
2013-02-14 23:46:00,60.4,59.3,29.97,East,101,0.0,0.0,96,0.00,,,0.24,WeatherTracker,2013-02-15 04:46:00,
2013-02-14 23:51:00,60.4,59.3,29.98,SSE,162,0.0,0.0,96,0.01,,,0.25,WeatherTracker,2013-02-15 04:51:00,
2013-02-14 23:56:00,60.4,59.3,29.98,ESE,103,0.0,0.0,96,0.01,,,0.25,WeatherTracker,2013-02-15 04:56:00,